Weather in Svatay

Russia / Sakha (Yakutia) Republic     68°03′33″N   151°47′55″E
temp.,
°C
wind,
m/s
gust,
m/s
humid.,
%
clouds,
%
prec.,
mm/h
press.,
hPa
HPBL,
m
8 march, mon
mon823:00−27wnw61295100 0.1 1003381
02:00−28wnw6119599 0.0 1003239
05:00−28wnw5119798 0.1 1002217
08:00−27wnw489791 0.0 1003151
11:00−25wnw599494 0.1 1002469
14:00−23wnw5890100 0.0 1001717
17:00−23wnw3596100 0.1 1001117
20:00−26w3496100 0.0 100133
9 march, tue
tue923:00−28w349791 0.1 100122
02:00−28wsw349765 0.0 100127
05:00−28wsw349378 0.0 100226
08:00−25sw339699 0.0 100346
11:00−22w469699 0.1 1003332
14:00−21wnw5691100 0.2 1004536
17:00−23w3387100 0.2 100437
20:00−26wsw5589100 0.0 100676
10 march, wed
wed1023:00−27wsw448899 0.0 100730
02:00−27sw448287 0.0 100741
05:00−25ssw458993 0.0 100871
08:00−28s589574 0.0 1008106
11:00−26ssw6108973 0.0 1007255
14:00−22s61184100 0.0 1006345
17:00−22s5108684 0.0 1005306
20:00−25s58890 0.0 1005105
11 march, thu
thu1123:00−26s510885 0.0 1005159
02:00−26s6118627 0.0 1004188
05:00−27s5108422 0.0 1004172
08:00−26s5128438 0.0 1004208
11:00−23s6108369 0.0 1004288
14:00−20ssw5784100 0.0 1004295
17:00−20ssw3490100 0.0 100599
20:00−22ssw3488100 0.0 100633
12 march, fri
fri1223:00−22wsw2282100 0.0 100720
02:00−22sw117999 0.0 100720
05:00−21ssw2278100 0.0 100820
08:00−24w228183 0.0 100920
11:00−21w118342 0.0 100962
14:00−19wnw12820 0.0 1008177
17:00−22se01910 0.0 100820
20:00−25sse12940 0.0 100720